Regional Weather Roundup
Issued by NWS

Home | Current Version | Previous Version | Text Only | Print | Product List | Glossary Off
Versions: 1 2 3 4 5 6 7 8 9 10 11 12 13 14 15 16 17 18 19 20 21 22 23 24 25 26 27 28 29 30 31 32 33 34 35 36 37 38 39 40 41 42 43 44 45 46 47 48 49 50

000
ASUS43 KFSD 291210
RWRSD

WEATHER ROUNDUP FOR SOUTH DAKOTA
NATIONAL WEATHER SERVICE SIOUX FALLS SD
700 AM CDT SAT APR 29 2017

NOTE: "FAIR" INDICATES FEW OR NO CLOUDS BELOW 12,000 FEET WITH NO
SIGNIFICANT WEATHER AND/OR OBSTRUCTIONS TO VISIBILITY.


SDZ001>005-009-010-012>017-291300-
NORTHWEST AND NORTH CENTRAL SOUTH DAKOTA

CITY           SKY/WX    TMP DP  RH WIND       PRES   REMARKS
BUFFALO          N/A     34  23  64 W5        30.17R WCI  30
FAITH            N/A     34  20  56 W5        30.23R WCI  30
MOBRIDGE       PTCLDY    30  23  75 N5        30.21R WCI  25
$$

SDZ012>016-024>037-041>051-057-063-072>074-291300-
SOUTHWEST AND SOUTH CENTRAL SOUTH DAKOTA

CITY           SKY/WX    TMP DP  RH WIND       PRES   REMARKS
RAPID CTY ARPT CLEAR     27  21  78 NW8       30.21F WCI  19
PIERRE         PTCLDY    32  21  64 CALM      30.24R
CUSTER         CLEAR     22  15  75 CALM      30.17S
ELLSWORTH AFB  PTCLDY    29  20  69 N9        30.20F WCI  21
PHILIP         CLOUDY    31  27  85 W3        30.23R
PINE RIDGE     CLOUDY    32  29  88 S3        30.22R
SPEARFISH      FAIR      27  21  80 SW7       30.23S WCI  19
WINNER         CLOUDY    34  23  64 CALM      30.23R
$$

SDZ004>011-016>023-039-040-291300-
NORTHEAST SOUTH DAKOTA

CITY           SKY/WX    TMP DP  RH WIND       PRES   REMARKS
ABERDEEN       CLEAR     25  19  78 N5        30.24R WCI  19
WATERTOWN      CLOUDY    25  20  81 CALM      30.22R
BROOKINGS      CLOUDY    33  22  63 NE7       30.22R WCI  27
SISSETON         N/A     27  23  85 N5        30.24R WCI  22
$$

SDZ017-020-022-023-036>040-048>070-291300-
SOUTHEAST SOUTH DAKOTA

CITY           SKY/WX    TMP DP  RH WIND       PRES   REMARKS
SIOUX FALLS    MOCLDY    36  27  69 NE7       30.20R
HURON          MOCLDY    24  21  88 CALM      30.25R
CHAMBERLAIN    CLOUDY    39  24  54 N5        30.25R
MITCHELL       MOCLDY    31  24  75 NW6       30.23R WCI  25
YANKTON        CLOUDY    39  25  56 NE10      30.18R
$$

ABBREVIATIONS USED IN REMARKS
   TC - TEMPERATURE IN CELSIUS
  WCI - WIND CHILL INDEX
   HX - HEAT INDEX
  VSB - VISIBILITY





USA.gov is the U.S. government's official web portal to all federal, state and local government web resources and services.